Location: Monroe
(41.9160°N, 83.3980°W)
Time: 03:52:38
(UTC-04:00)

ISS - All Passes

Search period start: 23 July 2014 00:00
Search period end: 02 August 2014 00:00
Orbit: 413 x 420 km, 51.6° (Epoch: 23 July)

Date Brightness Start Highest point End Pass type
(mag) Time Alt. Az. Time Alt. Az. Time Alt. Az.
23 Jul - 02:09:24 10° S 02:12:09 24° SE 02:14:55 10° E visible
23 Jul - 03:45:30 10° WSW 03:48:44 44° NNW 03:51:59 10° NE visible
23 Jul - 05:23:47 10° NW 05:26:06 17° N 05:28:25 10° NE visible
23 Jul - 07:01:22 10° NW 07:03:47 18° NNE 07:06:12 10° ENE daylight
23 Jul - 08:37:46 10° NW 08:41:05 54° NNE 08:44:23 10° ESE daylight
23 Jul - 10:15:07 10° W 10:17:34 19° SW 10:20:00 10° S daylight
24 Jul - 01:21:59 10° SSE 01:23:49 14° SE 01:25:40 10° E night (unlit)
24 Jul - 02:56:50 10° WSW 03:00:10 71° NNW 03:03:32 10° NE visible
24 Jul - 04:34:49 10° WNW 04:37:22 20° NNW 04:39:56 10° NE visible
24 Jul - 06:12:49 10° NW 06:15:02 16° N 06:17:15 10° NE daylight
24 Jul - 07:49:21 10° NW 07:52:30 36° NNE 07:55:38 10° E daylight
24 Jul - 09:26:10 10° WNW 09:29:12 32° SW 09:32:14 10° SSE daylight
25 Jul - 02:08:21 10° SW 02:11:40 68° SE 02:15:01 10° ENE visible
25 Jul - 03:45:51 10° WNW 03:48:40 24° NNW 03:51:30 10° NE visible
25 Jul - 05:24:09 10° NW 05:26:16 16° N 05:28:24 10° NE visible
25 Jul - 07:00:56 10° NW 07:03:51 26° NNE 07:06:46 10° E daylight
25 Jul - 08:37:28 10° WNW 08:40:47 57° SW 08:44:05 10° SE daylight
26 Jul - 01:20:07 10° SSW 01:23:14 38° SE 01:26:22 10° ENE visible
26 Jul - 02:56:56 10° W 03:00:00 32° NNW 03:03:05 10° NE visible
26 Jul - 04:35:20 10° NW 04:37:30 16° N 04:39:40 10° NE visible
26 Jul - 06:12:31 10° NW 06:15:10 21° NNE 06:17:48 10° ENE daylight
26 Jul - 07:48:55 10° NW 07:52:18 83° NE 07:55:40 10° ESE daylight
26 Jul - 09:27:15 10° WSW 09:28:35 12° SW 09:29:55 10° SSW daylight
27 Jul - 00:32:12 10° S 00:34:51 22° SE 00:37:31 10° E night (unlit)
27 Jul - 02:08:09 10° WSW 02:11:24 47° NNW 02:14:40 10° NE visible
27 Jul - 03:46:24 10° NW 03:48:45 17° N 03:51:05 10° NE visible
27 Jul - 05:24:03 10° NW 05:26:26 18° N 05:28:49 10° NE visible
27 Jul - 07:00:27 10° NW 07:03:45 51° NNE 07:07:02 10° ESE daylight
27 Jul - 08:37:41 10° W 08:40:16 20° SW 08:42:49 10° S daylight
27 Jul - 23:44:56 10° SSE 23:46:32 13° SE 23:48:07 10° ESE night (unlit)
28 Jul - 01:19:30 10° WSW 01:22:50 77° NW 01:26:12 10° NE visible
28 Jul - 02:57:25 10° WNW 03:00:00 20° NNW 03:02:36 10° NE visible
28 Jul - 04:35:29 10° NW 04:37:40 16° N 04:39:51 10° NE visible
28 Jul - 06:12:02 10° NW 06:15:09 34° NNE 06:18:15 10° E daylight
28 Jul - 07:48:47 10° WNW 07:51:53 35° SW 07:54:58 10° SSE daylight
29 Jul - 00:31:02 10° SW 00:34:20 62° SE 00:37:39 10° ENE night (unlit)
29 Jul - 02:08:27 10° WNW 02:11:18 25° NNW 02:14:10 10° NE visible
29 Jul - 03:46:46 10° NW 03:48:53 16° N 03:51:00 10° NE visible
29 Jul - 05:23:37 10° NW 05:26:29 25° NNE 05:29:21 10° ENE visible
29 Jul - 07:00:07 10° WNW 07:03:27 62° SW 07:06:46 10° SE daylight
29 Jul - 23:42:50 10° SSW 23:45:54 35° SE 23:48:59 10° ENE night (unlit)
30 Jul - 01:19:32 10° W 01:22:38 34° NNW 01:25:44 10° NE visible
30 Jul - 02:57:56 10° NW 03:00:06 16° N 03:02:18 10° NE visible
30 Jul - 04:35:11 10° NW 04:37:46 20° NNE 04:40:22 10° ENE visible
30 Jul - 06:11:34 10° NW 06:14:56 77° NE 06:18:18 10° ESE daylight
30 Jul - 07:49:38 10° W 07:51:15 13° SW 07:52:53 10° SSW daylight
30 Jul - 22:54:59 10° S 22:57:31 20° SE 23:00:03 10° E night (unlit)
31 Jul - 00:30:45 10° WSW 00:34:01 51° NNW 00:37:18 10° NE visible
31 Jul - 02:08:58 10° NW 02:11:20 18° N 02:13:43 10° NE visible
31 Jul - 03:46:41 10° NW 03:49:01 17° N 03:51:22 10° NE visible
31 Jul - 05:23:06 10° NW 05:26:22 47° NNE 05:29:38 10° ESE visible
31 Jul - 07:00:14 10° W 07:02:55 22° SW 07:05:35 10° S daylight
31 Jul - 22:07:54 10° SSE 22:09:11 12° SE 22:10:28 10° ESE night (unlit)
31 Jul - 23:42:07 10° WSW 23:45:27 83° NW 23:48:49 10° NE night (unlit)
01 Aug - 01:19:58 10° WNW 01:22:35 21° NNW 01:25:13 10° NE visible
01 Aug - 02:58:05 10° NW 03:00:15 16° N 03:02:25 10° NE visible
01 Aug - 04:34:40 10° NW 04:37:45 32° NNE 04:40:49 10° E visible
01 Aug - 06:11:22 10° WNW 06:14:31 38° SW 06:17:39 10° SSE daylight
01 Aug - 22:53:41 10° SW 22:56:57 56° SE 23:00:15 10° ENE visible
